Previsão horária em Barlomino

Hoje, 25 Outubro, Domingo

Tempo Temperatura Precipitação Vento Pressão Humidade
00:00 +10°C° 0 mm 3 m/s 748 mmHg 91%
01:00 +10°C° 0 mm 3 m/s 748 mmHg 91%
02:00 +10°C° 0 mm 3 m/s 748 mmHg 92%
03:00 +10°C° 0 mm 3 m/s 748 mmHg 93%
04:00 +10°C° 0 mm 3 m/s 748 mmHg 93%
05:00 +10°C° 0 mm 3 m/s 748 mmHg 93%
06:00 +8°C° 0 mm 4 m/s 748 mmHg 92%
07:00 +8°C° 0 mm 4 m/s 748 mmHg 91%
08:00 +10°C° 0 mm 4 m/s 748 mmHg 86%
09:00 +12°C° 0 mm 5 m/s 748 mmHg 80%
10:00 +13°C° 0 mm 5 m/s 748 mmHg 75%
11:00 +14°C° 0 mm 5 m/s 748 mmHg 72%
12:00 +14°C° 0 mm 5 m/s 748 mmHg 69%
13:00 +15°C° 0 mm 6 m/s 748 mmHg 66%
14:00 +15°C° 0 mm 5 m/s 747 mmHg 69%
15:00 +14°C° 0 mm 5 m/s 747 mmHg 72%
16:00 +13°C° 0 mm 4 m/s 746 mmHg 75%
17:00 +13°C° 0 mm 5 m/s 747 mmHg 78%
18:00 +12°C° 0 mm 5 m/s 747 mmHg 80%
19:00 +12°C° 0 mm 5 m/s 747 mmHg 83%
20:00 +11°C° 0 mm 6 m/s 747 mmHg 84%
21:00 +11°C° 0 mm 6 m/s 746 mmHg 85%
22:00 +11°C° 0 mm 6 m/s 746 mmHg 86%
23:00 +10°C° 0 mm 6 m/s 746 mmHg 86%

Amanhã, 26 Outubro, Segunda-feira

Tempo Temperatura Precipitação Vento Pressão Humidade
00:00 +10°C° 0 mm 6 m/s 746 mmHg 86%
01:00 +10°C° 0 mm 5 m/s 745 mmHg 86%
02:00 +10°C° 0 mm 5 m/s 745 mmHg 87%
03:00 +9°C° 0 mm 5 m/s 745 mmHg 88%
04:00 +9°C° 0 mm 5 m/s 745 mmHg 89%
05:00 +9°C° 0 mm 5 m/s 745 mmHg 90%
06:00 +8°C° 0 mm 4 m/s 745 mmHg 92%
07:00 +8°C° 0 mm 4 m/s 744 mmHg 94%
08:00 +10°C° 0 mm 4 m/s 744 mmHg 90%
09:00 +11°C° 0 mm 4 m/s 744 mmHg 87%
10:00 +12°C° 0 mm 4 m/s 744 mmHg 83%
11:00 +12°C° 0 mm 4 m/s 744 mmHg 81%
12:00 +13°C° 0 mm 4 m/s 744 mmHg 80%
13:00 +13°C° 0 mm 4 m/s 744 mmHg 78%
14:00 +13°C° 0 mm 4 m/s 743 mmHg 80%
15:00 +13°C° 0 mm 4 m/s 743 mmHg 81%
16:00 +12°C° 0 mm 4 m/s 743 mmHg 83%
17:00 +12°C° 0 mm 4 m/s 743 mmHg 84%
18:00 +12°C° 0 mm 3 m/s 743 mmHg 85%
19:00 +12°C° 0 mm 3 m/s 743 mmHg 87%
20:00 +12°C° 0.1 mm 3 m/s 743 mmHg 86%
21:00 +12°C° 0.1 mm 3 m/s 743 mmHg 86%
22:00 +12°C° 0.1 mm 3 m/s 743 mmHg 85%
23:00 +12°C° 0.1 mm 3 m/s 744 mmHg 88%

Depois de amanhã, 27 Outubro, Terça-feira

Tempo Temperatura Precipitação Vento Pressão Humidade
00:00 +12°C° 0.1 mm 2 m/s 744 mmHg 90%
01:00 +12°C° 0.1 mm 2 m/s 744 mmHg 93%
02:00 +12°C° 0.1 mm 2 m/s 744 mmHg 93%
03:00 +12°C° 0.1 mm 2 m/s 744 mmHg 94%
04:00 +12°C° 0.1 mm 2 m/s 744 mmHg 94%
05:00 +11°C° 0 mm 1 m/s 745 mmHg 94%
06:00 +11°C° 0 mm 1 m/s 745 mmHg 94%
07:00 +11°C° 0 mm 1 m/s 745 mmHg 94%
08:00 +11°C° 0 mm 1 m/s 745 mmHg 91%
09:00 +12°C° 0 mm 1 m/s 745 mmHg 87%
10:00 +11°C° 0 mm 0 m/s 746 mmHg 84%
11:00 +12°C° 0 mm 1 m/s 746 mmHg 84%
12:00 +12°C° 0 mm 1 m/s 746 mmHg 85%
13:00 +12°C° 0 mm 1 m/s 746 mmHg 86%
14:00 +12°C° 0.9 mm 1 m/s 746 mmHg 89%
15:00 +12°C° 0.9 mm 1 m/s 745 mmHg 92%
16:00 +11°C° 0.9 mm 1 m/s 745 mmHg 95%
17:00 +11°C° 1.6 mm 1 m/s 745 mmHg 95%
18:00 +10°C° 1.6 mm 2 m/s 745 mmHg 94%
19:00 +10°C° 1.6 mm 3 m/s 745 mmHg 93%
20:00 +10°C° 0.5 mm 3 m/s 746 mmHg 91%
21:00 +9°C° 0.5 mm 3 m/s 746 mmHg 90%
22:00 +9°C° 0.5 mm 3 m/s 746 mmHg 89%
23:00 +9°C° 0.1 mm 3 m/s 746 mmHg 89%

28 Outubro, Quarta-feira

Tempo Temperatura Precipitação Vento Pressão Humidade
00:00 +9°C° 0.1 mm 3 m/s 746 mmHg 89%
01:00 +9°C° 0.1 mm 3 m/s 747 mmHg 89%
02:00 +8°C° 0 mm 3 m/s 747 mmHg 90%
03:00 +8°C° 0 mm 3 m/s 747 mmHg 90%
04:00 +7°C° 0 mm 4 m/s 747 mmHg 91%
05:00 +6°C° 0 mm 4 m/s 747 mmHg 91%
06:00 +6°C° 0 mm 4 m/s 747 mmHg 90%
07:00 +6°C° 0 mm 4 m/s 748 mmHg 89%
08:00 +7°C° 0 mm 5 m/s 748 mmHg 83%
09:00 +8°C° 0 mm 6 m/s 748 mmHg 77%
10:00 +9°C° 0 mm 6 m/s 748 mmHg 71%
11:00 +10°C° 0 mm 6 m/s 747 mmHg 67%
12:00 +11°C° 0 mm 6 m/s 747 mmHg 63%
13:00 +13°C° 0 mm 6 m/s 747 mmHg 60%
14:00 +11°C° 0 mm 6 m/s 747 mmHg 62%
15:00 +12°C° 0 mm 5 m/s 747 mmHg 65%
16:00 +10°C° 0 mm 5 m/s 747 mmHg 67%
17:00 +10°C° 0 mm 5 m/s 747 mmHg 69%
18:00 +9°C° 0 mm 5 m/s 747 mmHg 71%
19:00 +9°C° 0 mm 5 m/s 747 mmHg 73%
20:00 +9°C° 0 mm 5 m/s 747 mmHg 73%
21:00 +9°C° 0 mm 5 m/s 747 mmHg 73%
22:00 +9°C° 0 mm 5 m/s 747 mmHg 73%
23:00 +8°C° 0 mm 5 m/s 747 mmHg 76%

29 Outubro, Quinta-feira

Tempo Temperatura Precipitação Vento Pressão Humidade
00:00 +8°C° 0 mm 5 m/s 747 mmHg 79%
01:00 +7°C° 0 mm 5 m/s 746 mmHg 82%
02:00 +7°C° 0 mm 5 m/s 746 mmHg 82%
03:00 +7°C° 0 mm 5 m/s 746 mmHg 82%
04:00 +7°C° 0 mm 5 m/s 746 mmHg 82%
05:00 +7°C° 0 mm 5 m/s 746 mmHg 83%
06:00 +7°C° 0 mm 5 m/s 746 mmHg 83%
07:00 +7°C° 0 mm 5 m/s 746 mmHg 84%
08:00 +7°C° 0.1 mm 5 m/s 746 mmHg 84%
09:00 +8°C° 0.1 mm 5 m/s 746 mmHg 84%
10:00 +8°C° 0.1 mm 6 m/s 746 mmHg 85%
11:00 +8°C° 0.6 mm 6 m/s 747 mmHg 83%
12:00 +9°C° 0.6 mm 6 m/s 747 mmHg 82%
13:00 +9°C° 0.6 mm 6 m/s 747 mmHg 81%
14:00 +9°C° 0.1 mm 5 m/s 747 mmHg 79%
15:00 +9°C° 0.1 mm 5 m/s 747 mmHg 78%
16:00 +10°C° 0.1 mm 4 m/s 748 mmHg 76%
17:00 +8°C° 0 mm 4 m/s 748 mmHg 78%
18:00 +8°C° 0 mm 4 m/s 748 mmHg 79%
19:00 +7°C° 0 mm 5 m/s 749 mmHg 81%
20:00 +7°C° 0 mm 5 m/s 749 mmHg 82%
21:00 +7°C° 0 mm 5 m/s 749 mmHg 82%
22:00 +7°C° 0 mm 5 m/s 749 mmHg 83%
23:00 +7°C° 0 mm 5 m/s 749 mmHg 83%

30 Outubro, Sexta-feira

Tempo Temperatura Precipitação Vento Pressão Humidade
00:00 +7°C° 0 mm 5 m/s 749 mmHg 83%
01:00 +7°C° 0 mm 5 m/s 749 mmHg 82%
02:00 +8°C° 0 mm 6 m/s 749 mmHg 81%
03:00 +8°C° 0 mm 6 m/s 748 mmHg 80%
04:00 +8°C° 0 mm 7 m/s 748 mmHg 79%
05:00 +8°C° 0.2 mm 7 m/s 748 mmHg 82%
06:00 +7°C° 0.2 mm 8 m/s 748 mmHg 84%
07:00 +9°C° 0.2 mm 8 m/s 748 mmHg 86%
08:00 +9°C° 0 mm 8 m/s 748 mmHg 86%
09:00 +10°C° 0 mm 8 m/s 748 mmHg 85%
10:00 +11°C° 0 mm 8 m/s 748 mmHg 85%
11:00 +11°C° 0.1 mm 7 m/s 749 mmHg 85%
12:00 +11°C° 0.1 mm 7 m/s 749 mmHg 84%
13:00 +12°C° 0.1 mm 7 m/s 749 mmHg 83%
14:00 +12°C° 0.1 mm 7 m/s 749 mmHg 84%
15:00 +12°C° 0.1 mm 7 m/s 749 mmHg 85%
16:00 +11°C° 0.1 mm 7 m/s 749 mmHg 86%
17:00 +13°C° 0 mm 6 m/s 750 mmHg 84%
18:00 +13°C° 0 mm 6 m/s 750 mmHg 82%
19:00 +13°C° 0 mm 6 m/s 750 mmHg 81%
20:00 +13°C° 0 mm 6 m/s 750 mmHg 81%
21:00 +13°C° 0 mm 6 m/s 750 mmHg 81%
22:00 +11°C° 0 mm 6 m/s 750 mmHg 80%
23:00 +12°C° 0 mm 5 m/s 750 mmHg 81%
Mostrar mais